Location: New Canada
(47.1017°N, 68.5042°W)
Time: 17:24:42
(UTC+00:00)

KKS-1 - Pass Details

Date: 27 April 2024
Orbit: 628 x 639 km, 98.1° (Epoch: 21 May)

Event Time Altitude Azimuth Distance (km) Brightness Sun altitude
Rises 03:31:37 0° 18° (NNE) 2,957 ? -27.5°
Reaches altitude 10° 03:33:54 10° 24° (NNE) 2,043 ? -27.6°
Enters shadow 03:36:47 35° 48° (NE) 1,032 ? -27.7°
